Lid_Strength_Index
3 3 4 4 4 4 4 5 4 6 6 7 7 7 7 8 7 7 11 10 9 11 11 10 10 11 10 11 14 12 13 11 12 15 15 15 17 15 16 15 17 17 19 21 18 19 21 13 14 15 15 12 11 10
3 3 3 4 4 4 4 5 6 6 7 7 7 7 7 8 7 6 10 8 7 10 11 9 8 7 8 9 11 11 12 13 12 15 14 15 16 15 16 19 14 17 16 18 18 17 14 14 14 11 11 12 12 11
3 3 4 4 4 4 5 6 6 7 7 7 7 7 8 7 7 7 8 7 8 10 10 12 10 6 6 8 7 13 11 9 10 10 13 14 16 14 17 16 16 14 14 16 16 14 15 13 11 11 11 12 11 10
3 3 4 4 4 4 5 6 7 7 7 7 7 8 7 7 7 6 8 7 8 9 12 11 6 7 6 6 7 8 9 8 9 10 12 14 15 12 14 15 16 15 16 16 15 14 13 13 11 11 12 11 11 11
4 3 4 4 4 5 5 6 7 7 7 7 7 7 6 6 6 7 9 8 6 9 11 10 7 8 8 7 6 7 9 9 10 12 13 13 12 12 13 14 16 15 16 17 17 14 13 13 11 11 12 12 11 12
3 4 4 4 4 5 6 7 8 7 7 7 7 7 7 6 6 9 11 6 6 6 9 11 9 9 9 7 5 5 6 7 9 10 11 10 11 12 17 17 15 13 11 12 13 11 11 10 10 10 11 11 11 12
2 4 4 4 5 5 6 7 7 7 8 7 7 7 6 6 7 10 12 7 5 5 9 10 12 10 9 7 8 8 7 8 9 10 10 11 13 14 14 17 15 12 11 10 10 10 12 11 12 10 11 11 10 11
3 3 4 4 4 5 6 7 7 8 8 7 7 6 5 5 5 7 7 4 5 8 8 10 11 11 8 8 10 8 10 10 10 10 10 11 11 12 15 14 12 11 10 10 10 9 10 10 10 10 10 10 12 12
3 3 4 4 5 6 6 7 8 8 7 7 7 6 6 7 9 7 2 3 5 7 10 10 12 15 9 9 7 7 8 10 10 11 11 12 14 16 13 12 12 11 11 10 9 9 9 10 10 10 10 10 11 12
3 3 4 5 6 6 6 7 8 7 7 7 8 8 11 9 4 3 6 8 8 7 7 10 10 12 10 10 8 9 8 10 13 11 10 13 14 12 10 10 10 10 9 9 11 11 10 10 10 10 11 11 11 12
2 3 4 5 6 6 7 8 7 7 8 11 11 10 9 6 8 8 10 10 8 9 8 8 10 11 9 11 10 8 10 9 13 12 13 14 15 12 9 10 10 9 9 9 9 9 9 10 11 11 11 12 12 12
2 3 4 5 5 7 7 7 7 10 11 11 11 9 10 10 9 10 11 11 9 10 9 10 9 9 9 7 9 8 11 10 14 9 12 15 12 10 10 10 9 9 9 9 9 10 10 10 11 12 12 12 12 12
3 4 5 5 6 7 7 7 7 8 8 8 8 11 12 12 13 13 14 13 11 8 8 9 9 9 8 7 9 9 12 13 9 13 13 13 11 9 10 10 9 8 8 8 10 10 10 11 11 11 12 12 12 12
4 5 5 6 7 7 7 7 7 8 10 11 11 14 13 14 12 13 13 12 9 9 9 9 10 9 8 9 9 12 10 10 13 15 14 11 10 9 10 10 9 9 10 11 12 11 11 11 12 11 11 11 11 11
5 5 6 7 7 7 7 7 8 10 11 12 11 15 14 11 11 9 8 9 8 8 8 9 9 9 10 10 10 11 12 14 13 14 13 10 9 10 11 11 11 12 12 12 12 11 11 11 11 11 11 11 11 11
5 6 8 7 7 7 7 8 10 9 10 11 12 13 12 12 12 10 10 9 7 8 8 9 10 11 12 11 11 13 13 14 13 11 10 9 9 10 11 11 12 12 11 11 10 10 10 10 10 11 10 10 10 10
7 9 7 7 7 7 7 10 9 9 10 12 13 11 12 12 12 10 9 8 7 8 10 10 12 13 9 12 12 10 13 11 9 9 8 8 9 10 10 10 11 11 11 11 11 11 11 11 10 10 11 10 10 10
9 7 6 7 7 8 9 9 8 10 12 12 14 13 12 11 10 9 8 7 7 8 8 10 8 12 13 13 13 10 10 9 9 8 8 7 8 9 9 10 10 10 10 10 10 10 11 10 10 11 10 10 10 10
7 7 6 7 8 10 11 11 9 11 11 11 11 11 10 9 7 7 6 7 6 5 7 8 10 11 11 9 9 8 8 8 8 8 7 6 6 6 8 9 9 9 9 10 10 10 10 10 10 11 11 10 10 10
6 6 6 6 7 9 11 10 8 11 12 11 10 11 9 8 6 5 5 5 5 6 8 10 10 8 8 7 6 7 7 7 6 7 7 7 6 5 8 8 9 9 9 9 10 10 11 11 11 11 10 10 11 11
7 7 6 9 8 10 9 9 9 9 10 11 10 9 9 8 6 6 6 5 7 8 9 8 8 7 5 7 7 7 7 7 7 7 7 7 6 5 6 7 7 9 9 9 10 10 10 10 10 10 10 10 10 10
8 6 9 8 10 9 11 10 10 8 11 10 10 9 10 9 8 7 5 7 8 8 8 8 7 6 7 8 7 6 6 5 5 5 6 6 6 6 7 5 6 7 7 7 8 8 8 9 9 9 10 10 10 10
5 6 9 9 10 10 13 9 11 10 11 10 8 9 9 9 7 5 8 7 8 7 6 5 4 4 6 7 6 5 5 5 6 6 4 4 4 4 4 4 4 5 5 6 6 6 7 8 8 8 9 9 9 10
5 8 11 11 11 13 9 11 10 10 9 10 10 11 10 9 7 8 10 9 8 5 6 5 5 7 7 7 7 6 5 4 4 4 3 4 4 4 4 4 4 4 4 3 4 5 5 6 8 7 8 8 9 9
14 14 11 12 10 10 9 10 10 10 10 9 10 10 9 7 10 10 10 8 7 6 6 6 6 7 6 6 7 5 5 4 6 6 4 3 4 4 4 4 3 3 2 3 4 4 4 5 6 6 6 7 8 9
13 12 13 11 10 10 10 10 10 10 9 10 10 8 7 9 11 11 9 7 7 5 6 6 6 6 5 5 5 6 4 3 3 4 6 3 3 4 5 6 6 6 3 2 3 3 3 4 4 5 5 7 10 8
13 11 10 8 9 8 9 9 8 9 10 10 10 9 10 12 12 9 6 5 6 6 5 4 4 5 4 4 4 4 3 3 3 3 4 5 3 3 3 4 5 4 2 2 2 3 3 4 4 5 6 7 7 7
10 9 11 9 9 8 10 9 9 10 9 8 8 10 12 11 10 7 5 5 6 4 4 3 3 3 3 3 3 3 4 3 3 3 4 4 5 4 4 2 2 7 2 2 2 3 3 3 3 4 5 5 6 6
10 9 8 10 9 9 9 9 9 8 6 7 9 9 9 6 6 4 4 5 4 4 4 4 4 4 5 4 3 2 3 4 4 5 5 6 6 5 4 4 4 4 4 4 9 6 4 5 5 5 4 5 5 6
10 9 10 9 9 10 8 8 8 6 6 6 5 5 5 5 4 3 3 4 4 4 4 4 5 6 6 6 6 5 3 3 3 4 5 5 4 3 4 3 4 4 4 4 4 5 9 6 6 4 5 6 6 7
8 9 9 9 9 8 7 6 5 5 6 6 6 6 6 5 4 4 5 5 4 3 4 5 6 5 5 5 4 4 4 3 3 3 2 3 2 3 3 3 3 3 3 3 4 4 4 4 4 4 4 5 6 7
8 9 9 9 9 7 5 6 7 7 7 7 7 5 5 6 7 6 5 5 4 5 6 4 4 5 5 4 4 5 8 2 3 3 3 3 4 4 4 4 3 2 3 3 3 3 3 3 4 4 5 4 5 4
8 8 8 8 9 8 6 7 8 8 7 7 7 7 7 7 8 5 3 4 4 4 4 4 3 3 4 3 3 4 7 6 9 10 9 9 9 8 6 5 5 4 4 5 4 4 4 4 4 5 5 5 5 5